Flag for Germany Weather past 2 weeks in Bietigheim-Bissingen, Baden-Württemberg, Germany

Now
38 °F

Overcast.


Feels Like: 38 °F
Forecast: 38 / 47 °F
Wind: 2 mph from South

Location: Stuttgart-Echterdingen

Current Time: Mar 1, 2015 at 10:13:11 AM

Latest Report: Mar 1, 2015 at 9:00 AM


Visibility: 19 mi

Pressure: 29.85 "Hg

Humidity: 88%

Dew point: 34 °F

Location of Bietigheim-BissingenLocation

Historic Weather in Bietigheim-Bissingen — Graph

°F

Bietigheim-Bissingen temperature yesterday

Maximum temperature yesterday: 43 °F (at 3:00 PM)
Minimum temperature yesterday: 33 °F (at 8:00 AM)
Average temperature yesterday: 38 °F

Past Weeks' High & Low Weather Summary

 TemperatureHumidityPressure
High55 °F (Feb 20, 3:00 PM)98% (Feb 17, 4:00 AM)30.78 "Hg (Feb 17, 4:00 AM)
Low24 °F (Feb 20, 5:00 AM)38% (Feb 20, 4:00 PM)29.55 "Hg (Feb 23, 5:00 PM)
Average35 °F80%30.07 "Hg
* Reported Feb 14 9:00 AM — Mar 1 9:00 AM, Bietigheim-Bissingen, Weather by CustomWeather, © 2015

Note: Actual official high and low records may vary slightly from our data, if they occured in-between our weather recording intervals... More about our weather records

Advertising

Bietigheim-Bissingen weather history for previous 24 hours

 ConditionsComfort  
Time TempWeatherWind HumidityBarometerVisibility
9:00 AM
Sun, Mar 1
38 °FOvercast.2 mph88%29.85 "Hg19 mi
8:00 AM36 °FLight rain. Overcast.2 mph87%29.87 "Hg7 mi
7:00 AM35 °FLight rain. Overcast.1 mph85%29.88 "Hg7 mi
6:00 AM35 °FLight rain. Overcast.2 mph83%29.90 "Hg12 mi
5:00 AM35 °FLight rain. Overcast.2 mph80%29.91 "Hg12 mi
3:00 AM33 °FOvercast.1 mph84%29.97 "Hg12 mi
2:00 AM33 °FOvercast.1 mph84%29.99 "Hg14 mi
1:00 AM33 °FPassing clouds.1 mph85%30.02 "Hg14 mi
12:00 AM34 °FPassing clouds.1 mph82%30.04 "Hg16 mi
11:00 PM
Sat, Feb 28
34 °FClear.2 mph81%30.06 "Hg16 mi
9:00 PM36 °FPassing clouds.2 mph77%30.10 "Hg22 mi
8:00 PM37 °FPassing clouds.3 mph75%30.10 "Hg25 mi
7:00 PM38 °FPassing clouds.3 mph71%30.10 "Hg25 mi
6:00 PM40 °FScattered clouds.5 mph68%30.09 "Hg28 mi
5:00 PM43 °FPartly sunny.3 mph64%30.10 "Hg28 mi
4:00 PM43 °FPartly sunny.2 mph60%30.11 "Hg28 mi
3:00 PM43 °FScattered clouds.1 mph60%30.12 "Hg28 mi
2:00 PM41 °FScattered clouds.2 mph66%30.14 "Hg25 mi
1:00 PM41 °FScattered clouds.1 mph70%30.17 "Hg22 mi
12:00 PM42 °FScattered clouds.1 mph69%30.19 "Hg19 mi
11:00 AM38 °FScattered clouds.1 mph77%30.21 "Hg15 mi
10:00 AM37 °FPartly sunny.2 mph81%30.22 "Hg14 mi
Weather by CustomWeather, © 2015

See weather overviewHow to use our weather pages